Location: Goettingen
(51.5300°N, 9.9433°E)
Time: 06:26:48
(UTC+01:00)

ISS - Pass Details

Date: 11 November 2018
Orbit: 401 x 409 km, 51.6° (Epoch: 21 November)

Event Time Altitude Azimuth Distance (km) Brightness Sun altitude
Exits shadow 06:40:59 - 261° (W) 1,572 -1.4 -8.0°
Reaches altitude 10° 06:41:24 10° 256° (WSW) 1,463 -1.5 -8.0°
Maximum altitude 06:43:21 15° 219° (SW) 1,202 -1.6 -7.7°
Drops below altitude 10° 06:45:17 10° 183° (S) 1,460 -0.8 -7.4°
Sets 06:48:00 0° 158° (SSE) 2,317 0.7 -7.0°
